| time (UTC) | temp C | wind direction | speed KPH | gust KPH | rain 1hr cm | rain 24hr cm | rain mn cm | humidity % | barometer mb |
| 20260507144542 | 15 | 25 | 1.6 | 12.9 | 0.00 | 0.00 | 0.00 | 61 | 1019.6 |
| 20260507143526 | 14 | 22 | 0.0 | 8.0 | 0.00 | 0.00 | 0.00 | 62 | 1019.6 |
| 20260507142533 | 14 | 22 | 3.2 | 12.9 | 0.00 | 0.00 | 0.00 | 62 | 1019.6 |
| 20260507141550 | 14 | 360 | 0.0 | 0.0 | 0.00 | 0.00 | 0.00 | 63 | 1019.7 |
| 20260507140543 | 13 | 26 | 0.0 | 4.8 | 0.00 | 0.00 | 0.00 | 66 | 1019.8 |
| 20260507135527 | 13 | 360 | 0.0 | 1.6 | 0.00 | 0.00 | 0.00 | 66 | 1019.9 |
| 20260507134535 | 13 | 26 | 0.0 | 0.0 | 0.00 | 0.00 | 0.00 | 68 | 1019.9 |
| 20260507133528 | 12 | 360 | 0.0 | 0.0 | 0.00 | 0.00 | 0.00 | 73 | 1019.9 |
| 20260507132543 | 11 | 360 | 0.0 | 1.6 | 0.00 | 0.00 | 0.00 | 77 | 1020.0 |
| 20260507131524 | 11 | 30 | 0.0 | 6.4 | 0.00 | 0.00 | 0.00 | 83 | 1019.9 |
| 20260507130534 | 10 | 25 | 0.0 | 4.8 | 0.00 | 0.00 | 0.00 | 85 | 1019.8 |
| 20260507125519 | 10 | 24 | 0.0 | 3.2 | 0.00 | 0.00 | 0.00 | 86 | 1019.7 |
| 20260507124520 | 8 | 26 | 0.0 | 0.0 | 0.00 | 0.00 | 0.00 | 86 | 1019.6 |
| 20260507123523 | 8 | 26 | 0.0 | 0.0 | 0.00 | 0.00 | 0.00 | 87 | 1019.4 |
| 20260507122534 | 7 | 26 | 0.0 | 1.6 | 0.00 | 0.00 | 0.00 | 87 | 1019.5 |
| 20260507121523 | 6 | 25 | 0.0 | 0.0 | 0.00 | 0.00 | 0.00 | 87 | 1019.3 |
| 20260507120553 | 6 | 26 | 0.0 | 0.0 | 0.00 | 0.00 | 0.00 | 86 | 1019.2 |
| 20260507115522 | 5 | 26 | 0.0 | 0.0 | 0.00 | 0.00 | 0.00 | 85 | 1019.2 |
| 20260507114536 | 5 | 26 | 0.0 | 0.0 | 0.00 | 0.00 | 0.00 | 86 | 1019.1 |
| 20260507113525 | 6 | 26 | 0.0 | 0.0 | 0.00 | 0.00 | 0.00 | 85 | 1019.2 |
| 20260507112531 | 6 | 26 | 0.0 | 0.0 | 0.00 | 0.00 | 0.00 | 85 | 1019.1 |
| 20260507111548 | 6 | 26 | 0.0 | 0.0 | 0.00 | 0.00 | 0.00 | 85 | 1019.1 |
| 20260507110538 | 6 | 26 | 0.0 | 0.0 | 0.00 | 0.00 | 0.00 | 85 | 1019.1 |
| 20260507105552 | 6 | 26 | 0.0 | 0.0 | 0.00 | 0.00 | 0.00 | 85 | 1019.2 |
| 20260507104521 | 7 | 26 | 0.0 | 0.0 | 0.00 | 0.00 | 0.00 | 85 | 1019.3 |
| 20260507103522 | 7 | 26 | 0.0 | 0.0 | 0.00 | 0.00 | 0.00 | 85 | 1019.2 |
| 20260507102530 | 7 | 26 | 0.0 | 0.0 | 0.00 | 0.00 | 0.00 | 85 | 1019.1 |
| 20260507101520 | 7 | 26 | 0.0 | 0.0 | 0.00 | 0.00 | 0.00 | 85 | 1019.1 |
| 20260507100532 | 8 | 26 | 0.0 | 0.0 | 0.00 | 0.00 | 0.00 | 85 | 1019.1 |
| 20260507095526 | 8 | 26 | 0.0 | 0.0 | 0.00 | 0.00 | 0.00 | 85 | 1019.2 |
| 20260507094536 | 8 | 26 | 0.0 | 0.0 | 0.00 | 0.00 | 0.00 | 85 | 1019.3 |
| 20260507093516 | 8 | 26 | 0.0 | 0.0 | 0.00 | 0.00 | 0.00 | 85 | 1019.4 |
| 20260507092522 | 8 | 26 | 0.0 | 0.0 | 0.00 | 0.00 | 0.00 | 85 | 1019.2 |
| 20260507091533 | 7 | 25 | 0.0 | 0.0 | 0.00 | 0.00 | 0.00 | 85 | 1019.3 |
| 20260507090552 | 7 | 26 | 0.0 | 0.0 | 0.00 | 0.00 | 0.00 | 85 | 1019.3 |
| 20260507085521 | 7 | 26 | 0.0 | 0.0 | 0.00 | 0.00 | 0.00 | 84 | 1019.2 |
| 20260507084541 | 7 | 26 | 0.0 | 0.0 | 0.00 | 0.00 | 0.00 | 84 | 1019.3 |
| 20260507083548 | 7 | 26 | 0.0 | 0.0 | 0.00 | 0.00 | 0.00 | 84 | 1019.4 |
| 20260507082519 | 7 | 26 | 0.0 | 0.0 | 0.00 | 0.00 | 0.00 | 84 | 1019.4 |
| 20260507081547 | 7 | 26 | 0.0 | 0.0 | 0.00 | 0.00 | 0.00 | 85 | 1019.4 |
| 20260507080532 | 7 | 26 | 0.0 | 0.0 | 0.00 | 0.00 | 0.00 | 85 | 1019.5 |
| 20260507075517 | 7 | 26 | 0.0 | 0.0 | 0.00 | 0.00 | 0.00 | 85 | 1019.6 |
| 20260507074521 | 7 | 26 | 0.0 | 0.0 | 0.00 | 0.00 | 0.00 | 85 | 1019.6 |
| 20260507073531 | 7 | 25 | 0.0 | 0.0 | 0.00 | 0.00 | 0.00 | 85 | 1019.8 |
| 20260507072522 | 7 | 25 | 0.0 | 0.0 | 0.00 | 0.00 | 0.00 | 85 | 1019.8 |
| 20260507071536 | 7 | 26 | 0.0 | 0.0 | 0.00 | 0.00 | 0.00 | 85 | 1019.8 |
| 20260507070519 | 7 | 25 | 0.0 | 0.0 | 0.00 | 0.00 | 0.00 | 85 | 1019.9 |
| 20260507065525 | 6 | 25 | 0.0 | 0.0 | 0.00 | 0.00 | 0.00 | 85 | 1020.1 |
| 20260507064538 | 6 | 25 | 0.0 | 0.0 | 0.00 | 0.00 | 0.00 | 85 | 1020.1 |
| 20260507063536 | 6 | 25 | 0.0 | 0.0 | 0.00 | 0.00 | 0.00 | 84 | 1019.9 |
| 20260507062526 | 5 | 25 | 0.0 | 0.0 | 0.00 | 0.00 | 0.00 | 83 | 1020.2 |
| 20260507061522 | 5 | 25 | 0.0 | 0.0 | 0.00 | 0.00 | 0.00 | 83 | 1019.9 |
| 20260507060529 | 6 | 25 | 0.0 | 0.0 | 0.00 | 0.00 | 0.00 | 83 | 1020.0 |
| 20260507055518 | 5 | 25 | 0.0 | 0.0 | 0.00 | 0.03 | 0.00 | 82 | 1019.8 |
| 20260507054537 | 6 | 25 | 0.0 | 0.0 | 0.00 | 0.03 | 0.00 | 82 | 1019.7 |
| 20260507053525 | 6 | 25 | 0.0 | 0.0 | 0.00 | 0.03 | 0.00 | 82 | 1019.8 |
| 20260507052532 | 5 | 25 | 0.0 | 0.0 | 0.00 | 0.03 | 0.00 | 81 | 1020.0 |
| 20260507051529 | 6 | 25 | 0.0 | 3.2 | 0.00 | 0.03 | 0.00 | 80 | 1020.1 |
| 20260507050535 | 6 | 25 | 0.0 | 1.6 | 0.00 | 0.03 | 0.00 | 79 | 1019.9 |
| 20260507045527 | 6 | 25 | 0.0 | 1.6 | 0.00 | 0.03 | 0.03 | 79 | 1019.7 |
| 20260507044520 | 6 | 25 | 0.0 | 0.0 | 0.00 | 0.03 | 0.03 | 79 | 1019.6 |
| 20260507043529 | 6 | 25 | 0.0 | 0.0 | 0.00 | 0.03 | 0.03 | 79 | 1019.3 |
| 20260507042533 | 6 | 26 | 0.0 | 0.0 | 0.00 | 0.03 | 0.03 | 77 | 1019.5 |
| 20260507041545 | 6 | 26 | 0.0 | 0.0 | 0.00 | 0.03 | 0.03 | 75 | 1019.5 |
| 20260507040528 | 7 | 26 | 0.0 | 0.0 | 0.00 | 0.03 | 0.03 | 75 | 1019.5 |
| 20260507035545 | 7 | 26 | 0.0 | 0.0 | 0.00 | 0.03 | 0.03 | 74 | 1019.5 |
| 20260507034530 | 7 | 26 | 0.0 | 0.0 | 0.00 | 0.03 | 0.03 | 72 | 1019.6 |
| 20260507033518 | 8 | 26 | 0.0 | 0.0 | 0.00 | 0.03 | 0.03 | 71 | 1019.5 |
| 20260507032532 | 8 | 25 | 0.0 | 0.0 | 0.00 | 0.03 | 0.03 | 69 | 1019.3 |
| 20260507031540 | 8 | 25 | 0.0 | 0.0 | 0.00 | 0.03 | 0.03 | 68 | 1019.2 |
| 20260507030525 | 10 | 25 | 0.0 | 0.0 | 0.00 | 0.03 | 0.03 | 67 | 1019.2 |
| 20260507025540 | 10 | 26 | 0.0 | 0.0 | 0.00 | 0.03 | 0.03 | 63 | 1019.1 |
| 20260507024548 | 11 | 26 | 0.0 | 0.0 | 0.00 | 0.03 | 0.03 | 58 | 1019.1 |
| 20260507023524 | 11 | 25 | 0.0 | 0.0 | 0.00 | 0.03 | 0.03 | 57 | 1019.0 |
| 20260507022538 | 12 | 25 | 0.0 | 0.0 | 0.00 | 0.03 | 0.03 | 57 | 1018.8 |
| 20260507021533 | 12 | 25 | 0.0 | 4.8 | 0.00 | 0.03 | 0.03 | 56 | 1018.7 |
| 20260507020518 | 12 | 25 | 0.0 | 3.2 | 0.00 | 0.03 | 0.03 | 55 | 1018.4 |
| 20260507015523 | 12 | 25 | 0.0 | 1.6 | 0.00 | 0.03 | 0.03 | 55 | 1018.4 |
| 20260507014532 | 12 | 25 | 0.0 | 6.4 | 0.00 | 0.03 | 0.03 | 53 | 1018.2 |
| 20260507013519 | 13 | 25 | 1.6 | 6.4 | 0.00 | 0.03 | 0.03 | 52 | 1018.0 |
| 20260507012528 | 13 | 26 | 0.0 | 3.2 | 0.00 | 0.03 | 0.03 | 51 | 1018.0 |
| 20260507011547 | 14 | 25 | 0.0 | 8.0 | 0.00 | 0.03 | 0.03 | 49 | 1018.0 |
| 20260507010549 | 14 | 25 | 1.6 | 8.0 | 0.00 | 0.03 | 0.03 | 47 | 1018.0 |
| 20260507005521 | 15 | 26 | 0.0 | 8.0 | 0.00 | 0.03 | 0.03 | 45 | 1017.9 |
| 20260507004528 | 15 | 29 | 3.2 | 9.7 | 0.00 | 0.03 | 0.03 | 44 | 1018.0 |
| 20260507003528 | 15 | 25 | 3.2 | 8.0 | 0.00 | 0.03 | 0.03 | 46 | 1017.9 |
| 20260507002528 | 15 | 29 | 3.2 | 6.4 | 0.00 | 0.03 | 0.03 | 45 | 1017.8 |
| 20260507001535 | 15 | 360 | 0.0 | 8.0 | 0.00 | 0.03 | 0.03 | 42 | 1017.7 |
| 20260507000522 | 16 | 360 | 1.6 | 9.7 | 0.00 | 0.03 | 0.03 | 42 | 1017.7 |
| 20260506235539 | 16 | 35 | 3.2 | 11.3 | 0.00 | 0.03 | 0.03 | 39 | 1017.5 |
| 20260506234522 | 16 | 360 | 6.4 | 12.9 | 0.00 | 0.03 | 0.03 | 38 | 1017.5 |
| 20260506233531 | 16 | 360 | 4.8 | 11.3 | 0.00 | 0.03 | 0.03 | 40 | 1017.4 |
| 20260506232518 | 16 | 43 | 3.2 | 11.3 | 0.00 | 0.03 | 0.03 | 40 | 1017.3 |
| 20260506231530 | 16 | 39 | 0.0 | 11.3 | 0.00 | 0.03 | 0.03 | 40 | 1017.1 |
| 20260506230519 | 16 | 360 | 1.6 | 11.3 | 0.00 | 0.03 | 0.03 | 40 | 1017.2 |
| 20260506225531 | 17 | 360 | 8.0 | 16.1 | 0.00 | 0.03 | 0.03 | 38 | 1017.1 |
| 20260506224526 | 17 | 28 | 3.2 | 14.5 | 0.00 | 0.03 | 0.03 | 41 | 1017.0 |
| 20260506223532 | 17 | 360 | 1.6 | 12.9 | 0.00 | 0.03 | 0.03 | 38 | 1017.0 |
| 20260506222519 | 17 | 360 | 4.8 | 11.3 | 0.00 | 0.03 | 0.03 | 38 | 1016.8 |
| 20260506221526 | 17 | 360 | 4.8 | 12.9 | 0.00 | 0.03 | 0.03 | 40 | 1016.7 |
| 20260506220545 | 17 | 360 | 6.4 | 16.1 | 0.00 | 0.03 | 0.03 | 38 | 1016.7 |
| 20260506215528 | 17 | 42 | 6.4 | 16.1 | 0.00 | 0.03 | 0.03 | 39 | 1016.7 |
| 20260506214525 | 17 | 360 | 6.4 | 14.5 | 0.00 | 0.03 | 0.03 | 38 | 1016.8 |
| 20260506213529 | 17 | 42 | 3.2 | 14.5 | 0.00 | 0.03 | 0.03 | 39 | 1016.8 |
| 20260506212535 | 17 | 360 | 6.4 | 16.1 | 0.00 | 0.03 | 0.03 | 38 | 1017.0 |
| 20260506211527 | 17 | 360 | 6.4 | 19.3 | 0.00 | 0.03 | 0.03 | 37 | 1017.0 |
| 20260506210534 | 17 | 360 | 9.7 | 14.5 | 0.00 | 0.03 | 0.03 | 40 | 1017.0 |
| 20260506205526 | 16 | 360 | 8.0 | 16.1 | 0.00 | 0.03 | 0.03 | 41 | 1017.1 |
| 20260506204517 | 16 | 26 | 8.0 | 17.7 | 0.00 | 0.03 | 0.03 | 40 | 1017.4 |
| 20260506203529 | 16 | 360 | 6.4 | 16.1 | 0.00 | 0.03 | 0.03 | 42 | 1017.5 |
| 20260506202534 | 17 | 360 | 8.0 | 14.5 | 0.00 | 0.03 | 0.03 | 44 | 1017.7 |
| 20260506201529 | 16 | 41 | 3.2 | 12.9 | 0.00 | 0.03 | 0.03 | 42 | 1017.8 |
| 20260506200536 | 16 | 40 | 0.0 | 16.1 | 0.00 | 0.03 | 0.03 | 44 | 1018.0 |
| 20260506195526 | 16 | 38 | 9.7 | 14.5 | 0.00 | 0.03 | 0.03 | 45 | 1018.1 |
| 20260506194530 | 16 | 27 | 6.4 | 12.9 | 0.00 | 0.03 | 0.03 | 46 | 1018.1 |
| 20260506193532 | 16 | 360 | 8.0 | 14.5 | 0.00 | 0.03 | 0.03 | 44 | 1018.3 |
| 20260506192522 | 16 | 38 | 8.0 | 17.7 | 0.00 | 0.03 | 0.03 | 45 | 1018.4 |
| 20260506191528 | 16 | 36 | 12.9 | 20.9 | 0.00 | 0.03 | 0.03 | 45 | 1018.3 |
| 20260506190540 | 16 | 36 | 11.3 | 17.7 | 0.00 | 0.03 | 0.03 | 46 | 1018.3 |
| 20260506185527 | 15 | 35 | 9.7 | 19.3 | 0.00 | 0.03 | 0.03 | 49 | 1018.4 |
| 20260506184540 | 16 | 360 | 9.7 | 17.7 | 0.00 | 0.03 | 0.03 | 48 | 1018.5 |
| 20260506183524 | 16 | 360 | 9.7 | 19.3 | 0.00 | 0.03 | 0.03 | 44 | 1018.6 |
| 20260506182527 | 15 | 36 | 8.0 | 17.7 | 0.00 | 0.03 | 0.03 | 50 | 1018.7 |
| 20260506181517 | 15 | 38 | 8.0 | 22.5 | 0.00 | 0.03 | 0.03 | 48 | 1018.7 |
| 20260506180521 | 16 | 38 | 6.4 | 17.7 | 0.00 | 0.03 | 0.03 | 49 | 1018.9 |
| 20260506175531 | 15 | 360 | 9.7 | 16.1 | 0.00 | 0.03 | 0.03 | 51 | 1019.1 |
| 20260506174521 | 15 | 18 | 11.3 | 19.3 | 0.00 | 0.03 | 0.03 | 48 | 1019.1 |
| 20260506173556 | 16 | 360 | 9.7 | 17.7 | 0.00 | 0.03 | 0.03 | 50 | 1018.9 |
| 20260506172520 | 15 | 41 | 9.7 | 19.3 | 0.00 | 0.03 | 0.03 | 47 | 1019.3 |
| 20260506171530 | 15 | 360 | 8.0 | 16.1 | 0.00 | 0.03 | 0.03 | 49 | 1019.3 |
| 20260506170540 | 14 | 360 | 8.0 | 19.3 | 0.00 | 0.03 | 0.03 | 48 | 1019.3 |
| 20260506165522 | 15 | 360 | 9.7 | 20.9 | 0.00 | 0.03 | 0.03 | 46 | 1019.3 |
| 20260506164536 | 15 | 360 | 8.0 | 22.5 | 0.00 | 0.03 | 0.03 | 50 | 1019.0 |
| 20260506163527 | 15 | 40 | 11.3 | 19.3 | 0.00 | 0.03 | 0.03 | 50 | 1019.1 |
| 20260506162533 | 14 | 37 | 9.7 | 17.7 | 0.00 | 0.03 | 0.03 | 51 | 1019.1 |
| 20260506161529 | 14 | 360 | 8.0 | 16.1 | 0.00 | 0.03 | 0.03 | 53 | 1019.4 |
| 20260506160526 | 13 | 30 | 8.0 | 17.7 | 0.00 | 0.03 | 0.03 | 53 | 1019.5 |
| 20260506155532 | 13 | 36 | 9.7 | 19.3 | 0.00 | 0.03 | 0.03 | 55 | 1019.3 |
| 20260506154518 | 13 | 360 | 11.3 | 25.7 | 0.00 | 0.03 | 0.03 | 55 | 1019.0 |
| 20260506153553 | 13 | 14 | 8.0 | 17.7 | 0.00 | 0.03 | 0.03 | 56 | 1018.7 |
| 20260506152524 | 13 | 42 | 12.9 | 19.3 | 0.00 | 0.03 | 0.03 | 55 | 1018.8 |
| 20260506151533 | 12 | 18 | 9.7 | 19.3 | 0.00 | 0.03 | 0.03 | 55 | 1018.6 |
| 20260506150520 | 12 | 28 | 9.7 | 17.7 | 0.00 | 0.03 | 0.03 | 55 | 1018.9 |
| 20260506145525 | 12 | 22 | 4.8 | 16.1 | 0.00 | 0.03 | 0.03 | 57 | 1019.1 |